FW6364 Weather Reports


Display with metric or nautical units.
time (UTC)temp
F
wind
direction
speed
MPH
gust
MPH
rain 1hr
in
rain 24hr
in
rain mn
in
humidity
%
barometer
mb
20260507040023 41 360 3.0 11.0 0.00 0.24 0.22 65 1012.1
20260507034519 41 269 4.0 9.0 0.00 0.24 0.22 65 1011.9
20260507033028 41 360 5.0 10.0 0.00 0.24 0.22 66 1011.8
20260507031515 42 295 3.0 10.0 0.00 0.24 0.22 69 1011.8
20260507030013 42 273 5.0 9.0 0.00 0.26 0.22 74 1011.9
20260507024515 42 360 3.0 8.0 0.00 0.26 0.22 79 1011.9
20260507023009 42 294 3.0 6.0 0.00 0.26 0.22 82 1012.0
20260507021517 43 360 3.0 8.0 0.00 0.26 0.22 83 1011.8
20260507020006 43 360 3.0 6.0 0.00 0.26 0.22 84 1011.8
20260507014505 43 360 4.0 9.0 0.00 0.26 0.22 84 1011.9
20260507013007 43 360 3.0 6.0 0.00 0.26 0.22 84 1011.8
20260507011511 44 360 3.0 8.0 0.00 0.26 0.22 84 1011.7
20260507010002 44 360 2.0 5.0 0.00 0.26 0.22 84 1011.5
20260507004600 44 360 2.0 5.0 0.00 0.26 0.22 84 1011.3
20260507003059 44 290 1.0 5.0 0.00 0.26 0.22 84 1011.2
20260507001605 44 263 2.0 5.0 0.00 0.26 0.22 84 1011.2
20260507000058 44 360 2.0 6.0 0.00 0.28 0.22 83 1011.1
20260506234621 43 270 3.0 8.0 0.00 0.28 0.22 83 1011.1
20260506233055 43 360 4.0 9.0 0.00 0.28 0.22 83 1011.0
20260506231555 44 219 5.0 10.0 0.00 0.28 0.22 82 1011.0
20260506230051 44 360 3.0 10.0 0.00 0.31 0.22 82 1010.8
20260506224550 44 360 4.0 9.0 0.00 0.31 0.22 82 1010.7
20260506223056 44 360 3.0 9.0 0.00 0.31 0.22 83 1010.6
20260506221547 44 360 3.0 7.0 0.00 0.31 0.22 83 1010.4
20260506220047 44 360 2.0 5.0 0.00 0.33 0.22 83 1010.3
20260506214546 45 360 2.0 6.0 0.00 0.33 0.22 82 1010.4
20260506213044 45 360 2.0 6.0 0.00 0.33 0.22 81 1010.4
20260506211543 46 360 2.0 5.0 0.00 0.33 0.22 81 1010.3
20260506210044 46 360 2.0 6.0 0.00 0.33 0.22 82 1010.4
20260506204552 46 228 3.0 8.0 0.00 0.33 0.22 82 1010.1
20260506203042 46 277 3.0 6.0 0.00 0.33 0.22 81 1010.2
20260506201542 47 360 3.0 6.0 0.00 0.33 0.22 80 1010.1
20260506200051 47 360 3.0 6.0 0.00 0.33 0.22 80 1010.2
20260506194548 47 239 2.0 6.0 0.00 0.33 0.22 79 1010.1
20260506193040 47 360 3.0 5.0 0.00 0.33 0.22 79 1010.2
20260506191539 48 193 2.0 8.0 0.00 0.33 0.22 78 1010.2
20260506190040 47 360 3.0 9.0 0.00 0.33 0.22 80 1010.2
20260506184539 47 360 2.0 8.0 0.00 0.33 0.22 81 1010.0
20260506183043 47 164 3.0 7.0 0.00 0.33 0.22 81 1010.1
20260506181537 47 228 2.0 6.0 0.00 0.33 0.22 82 1010.3
20260506180034 47 360 2.0 4.0 0.00 0.33 0.22 81 1010.2
20260506174533 47 360 2.0 6.0 0.00 0.33 0.22 83 1010.0
20260506173032 46 360 1.0 4.0 0.00 0.33 0.22 80 1010.0
20260506171541 46 300 0.0 5.0 0.00 0.33 0.22 82 1010.1
20260506170035 47 257 0.0 1.0 0.00 0.33 0.22 80 1010.2
20260506164530 48 139 0.0 3.0 0.00 0.33 0.22 83 1010.1
20260506163030 47 141 0.0 2.0 0.00 0.33 0.22 83 1010.0
20260506161537 47 158 0.0 0.0 0.00 0.33 0.22 83 1010.0
20260506160039 47 165 1.0 4.0 0.00 0.33 0.22 83 1009.8
20260506154530 47 84 1.0 4.0 0.00 0.33 0.22 84 1009.9
20260506153022 46 97 0.0 4.0 0.00 0.33 0.22 86 1010.0
20260506151531 45 102 0.0 4.0 0.00 0.33 0.22 85 1010.0
20260506150028 45 96 0.0 0.0 0.00 0.33 0.22 86 1010.1
20260506144517 45 92 0.0 2.0 0.00 0.33 0.22 87 1010.0
20260506143035 45 89 0.0 4.0 0.00 0.33 0.22 89 1010.0
20260506141518 44 98 1.0 4.0 0.00 0.33 0.22 89 1010.0
20260506140015 44 99 0.0 2.0 0.00 0.33 0.22 90 1010.0
20260506134514 44 98 1.0 4.0 0.01 0.33 0.22 91 1009.7
20260506133012 44 105 0.0 2.0 0.01 0.33 0.22 92 1009.6
20260506131515 43 82 0.0 3.0 0.01 0.33 0.22 92 1009.8
20260506130009 43 84 0.0 6.0 0.02 0.33 0.22 92 1009.6
20260506124508 43 71 1.0 3.0 0.02 0.32 0.21 92 1009.4
20260506123007 43 360 0.0 2.0 0.02 0.32 0.21 92 1009.6
20260506121507 43 92 0.0 0.0 0.02 0.32 0.21 92 1009.7
20260506120006 43 90 0.0 0.0 0.01 0.31 0.20 93 1009.6
20260506114505 42 91 0.0 1.0 0.00 0.31 0.20 93 1009.8
20260506113003 42 91 0.0 1.0 0.01 0.31 0.20 92 1009.6
20260506111503 42 91 0.0 1.0 0.01 0.31 0.20 93 1009.3
20260506110002 42 91 0.0 4.0 0.01 0.31 0.20 92 1008.9
20260506104617 42 112 1.0 2.0 0.02 0.31 0.20 92 1008.9
20260506103059 42 126 0.0 2.0 0.02 0.31 0.19 92 1009.1
20260506101605 42 128 0.0 1.0 0.03 0.31 0.19 92 1009.0
20260506100058 42 128 0.0 0.0 0.04 0.31 0.19 92 1009.3
20260506094600 42 128 0.0 0.0 0.05 0.30 0.18 92 1009.4
20260506093103 42 128 0.0 0.0 0.05 0.28 0.17 92 1009.6
20260506091556 42 128 0.0 0.0 0.05 0.28 0.16 92 1009.4
20260506090100 42 128 0.0 0.0 0.05 0.27 0.15 92 1009.4
20260506084554 42 128 0.0 0.0 0.05 0.25 0.13 92 1009.2
20260506083054 42 128 0.0 0.0 0.05 0.24 0.12 92 1009.6
20260506081553 42 128 0.0 1.0 0.06 0.23 0.11 92 1009.7
20260506073050 42 156 0.0 3.0 0.04 0.19 0.07 92 1009.7
20260506071604 42 158 0.0 2.0 0.02 0.17 0.05 92 1009.8
20260506061545 42 163 0.0 5.0 0.00 0.14 0.02 92 1009.8
20260506044536 42 228 1.0 4.0 0.02 0.14 0.01 92 1010.1
20260506043035 42 181 1.0 5.0 0.02 0.14 0.01 92 1010.0
20260506041545 42 196 1.0 4.0 0.02 0.14 0.01 92 1010.0